Location: Bluff Heights
(33.7692°N, 118.1592°W)
Time: 20:31:48
(UTC+00:00)

Vanguard 1 Rocket - Pass Details

Date: 01 October 2021
Orbit: 650 x 4225 km, 34.3° (Epoch: 26 October)

Event Time Altitude Azimuth Distance (km) Brightness Sun altitude
Exits shadow 11:16:47 15° 198° (SSW) 5,163 10.9 -31.7°
Drops below altitude 10° 11:22:30 10° 180° (S) 6,128 11.4 -30.5°
Sets 11:31:46 0° 163° (SSE) 7,861 12.2 -28.7°
